This is the latest recevied weather packets stored in our database for station/object DF9PV-5. If no packets are shown the sender has not sent any weather packets the latest 10 day(s).
| Time | Temp. | Humidity | Pressure | Rain* | Wind** | Luminosity | Snow |
|---|---|---|---|---|---|---|---|
| 1777567824 | 20° C | 21% | 1025.1 hPa | 0 mm | - | - | - |
| 1777563632 | 19.44° C | 21% | 1025.3 hPa | 0 mm | - | - | - |
| 1777563328 | 19.44° C | 21% | 1025.3 hPa | 0 mm | - | - | - |
| 1777562741 | 18.89° C | 20% | 1025.5 hPa | 0 mm | - | - | - |
| 1777561828 | 18.89° C | 20% | 1025.4 hPa | 0 mm | - | - | - |
| 1777561520 | 18.89° C | 21% | 1025.4 hPa | 0 mm | - | - | - |
| 1777558529 | 18.89° C | 21% | 1025.8 hPa | 0 mm | - | - | - |
| 1777558224 | 18.89° C | 21% | 1025.9 hPa | 0 mm | - | - | - |
| 1777557048 | 18.33° C | 20% | 1026.1 hPa | 0 mm | - | - | - |
| 1777555233 | 18.33° C | 21% | 1026.3 hPa | 0 mm | - | - | - |
| 1777554931 | 18.33° C | 21% | 1026.3 hPa | 0 mm | - | - | - |
| 1777554625 | 18.89° C | 21% | 1026.4 hPa | 0 mm | - | - | - |
| 1777550433 | 18.89° C | 22% | 1026.9 hPa | 0 mm | - | - | - |
| 1777549828 | 18.33° C | 22% | 1027.1 hPa | 0 mm | - | - | - |
| 1777548321 | 17.78° C | 23% | 1027.2 hPa | 0 mm | - | - | - |
| 1777548033 | 17.22° C | 23% | 1027.3 hPa | 0 mm | - | - | - |
| 1777547121 | 17.78° C | 24% | 1027.5 hPa | 0 mm | - | - | - |
| 1777545329 | 16.67° C | 23% | 1027.8 hPa | 0 mm | - | - | - |
| 1777542949 | 15.56° C | 27% | 1028.1 hPa | 0 mm | - | - | - |
| 1777542033 | 15.56° C | 27% | 1028.2 hPa | 0 mm | - | - | - |
| 1777541425 | 15° C | 28% | 1028.3 hPa | 0 mm | - | - | - |
| 1777540833 | 14.44° C | 29% | 1028.3 hPa | 0 mm | - | - | - |
| 1777539921 | 14.44° C | 30% | 1028.5 hPa | 0 mm | - | - | - |
| 1777539025 | 13.89° C | 29% | 1028.5 hPa | 0 mm | - | - | - |
| 1777538129 | 13.33° C | 31% | 1028.6 hPa | 0 mm | - | - | - |
* Rain latest hour (hover to see other rain measurements)
** Current wind speed in m/s (hover to see current wind gust speed)